Mandan, ND

4:19 AM CST on January 16, 2018 (GMT -0600)
Mandan

Weather History for KY19 - September, 2012

Change the Weather History Date:

Thursday, September 13, 2012

  Actual Average (KBIS) Record (KBIS)
Temperature  
Mean Temperature 57 °F -  
Max Temperature 77 °F 69 °F 97 °F (2015)
Min Temperature 37 °F 44 °F 27 °F (1970)
Degree Days  
Heating Degree Days 8    
Growing Degree Days 7 (Base 50)    
Moisture  
Dew Point 25 °F    
Average Humidity 36    
Maximum Humidity 61    
Minimum Humidity 11    
Precipitation  
Precipitation 0.00 in - - ()
Sea Level Pressure  
Sea Level Pressure 30.29 in    
Wind  
Wind Speed 7 mph (West)    
Max Wind Speed 22 mph    
Max Gust Speed 29 mph    
Visibility 10 miles    
Events      
Averages and records for this station are not official NWS values.
T = Trace of Precipitation, MM = Missing Value Source: NWS Daily Summary

Daily Weather History Graph

Daily Weather History Graph

Search for Another Location

Airport or City:

Trip Planner

Search our weather history database for the weather conditions in past years. The results will help you decide how hot, cold, wet, or windy it might be!

Date:

Astronomy

Sep. 13, 2012 Rise Set
Actual Time 7:19 AM CDT 7:58 PM CDT
Civil Twilight 6:48 AM CDT 8:28 PM CDT
Nautical Twilight 6:12 AM CDT 9:04 PM CDT
Astronomical Twilight 5:34 AM CDT 9:42 PM CDT
Moon 4:33 AM CDT (9/13) 6:26 PM CDT (9/13)
Length of Visible Light 13h 39m
Length of Day
12h 38m
Waning Crescent, 7% of the Moon is Illuminated
Sep 13
Waning Crescent
Sep 15
New
Sep 22
First Quarter
Sep 29
Full
Oct 8
Last Quarter

Hourly Weather History & Observations

Time (CDT) Temp. Windchill Dew Point Humidity Pressure Visibility Wind Dir Wind Speed Gust Speed Precip Events Conditions
12:15 AM 42.8 °F 40.1 °F 23.0 °F 46% 30.31 in 10.0 mi WNW 4.6 mph - N/A   Clear
12:35 AM 41.0 °F 37.1 °F 24.8 °F 53% 30.31 in 10.0 mi NW 5.8 mph - N/A   Clear
12:55 AM 42.8 °F 40.1 °F 23.0 °F 46% 30.31 in 10.0 mi WNW 4.6 mph - N/A   Clear
1:15 AM 41.0 °F 37.1 °F 24.8 °F 53% 30.31 in 10.0 mi West 5.8 mph - N/A   Clear
1:35 AM 39.2 °F 34.2 °F 24.8 °F 56% 30.32 in 10.0 mi West 6.9 mph - N/A   Clear
1:55 AM 39.2 °F 35.9 °F 24.8 °F 56% 30.32 in 10.0 mi West 4.6 mph - N/A   Clear
2:15 AM 39.2 °F 34.2 °F 24.8 °F 56% 30.32 in 10.0 mi WSW 6.9 mph - N/A   Clear
2:35 AM 39.2 °F 34.2 °F 24.8 °F 56% 30.32 in 10.0 mi WSW 6.9 mph - N/A   Clear
2:55 AM 39.2 °F 34.2 °F 24.8 °F 56% 30.32 in 10.0 mi WSW 6.9 mph - N/A   Clear
3:15 AM 39.2 °F 34.2 °F 24.8 °F 56% 30.33 in 10.0 mi West 6.9 mph - N/A   Clear
3:35 AM 39.2 °F 35.0 °F 24.8 °F 56% 30.33 in 10.0 mi West 5.8 mph - N/A   Clear
3:55 AM 39.2 °F 35.0 °F 24.8 °F 56% 30.33 in 10.0 mi West 5.8 mph - N/A   Clear
4:15 AM 39.2 °F 35.0 °F 24.8 °F 56% 30.33 in 10.0 mi WSW 5.8 mph - N/A   Clear
4:35 AM 39.2 °F 37.0 °F 24.8 °F 56% 30.33 in 10.0 mi WSW 3.5 mph - N/A   Clear
4:55 AM 39.2 °F 35.9 °F 24.8 °F 56% 30.33 in 10.0 mi West 4.6 mph - N/A   Clear
5:15 AM 39.2 °F 35.9 °F 26.6 °F 61% 30.33 in 10.0 mi West 4.6 mph - N/A   Clear
5:35 AM 39.2 °F 34.2 °F 24.8 °F 56% 30.33 in 10.0 mi WSW 6.9 mph - N/A   Clear
5:55 AM 37.4 °F 33.8 °F 24.8 °F 60% 30.33 in 10.0 mi WSW 4.6 mph - N/A   Clear
6:15 AM 37.4 °F 33.8 °F 24.8 °F 60% 30.33 in 10.0 mi WSW 4.6 mph - N/A   Clear
6:35 AM 37.4 °F 32.1 °F 24.8 °F 60% 30.33 in 10.0 mi WSW 6.9 mph - N/A   Clear
6:55 AM 39.2 °F 37.0 °F 24.8 °F 56% 30.34 in 10.0 mi West 3.5 mph - N/A   Clear
7:15 AM 39.2 °F 37.0 °F 24.8 °F 56% 30.34 in 10.0 mi West 3.5 mph - N/A   Clear
7:35 AM 39.2 °F - 24.8 °F 56% 30.34 in 10.0 mi Calm Calm - N/A   Clear
7:55 AM 41.0 °F - 24.8 °F 53% 30.34 in 10.0 mi Calm Calm - N/A   Clear
8:15 AM 41.0 °F 39.0 °F 24.8 °F 53% 30.34 in 10.0 mi SE 3.5 mph - N/A   Clear
8:35 AM 44.6 °F - 24.8 °F 46% 30.35 in 10.0 mi Calm Calm - N/A   Clear
8:55 AM 46.4 °F - 26.6 °F 46% 30.35 in 10.0 mi Calm Calm - N/A   Clear
9:15 AM 50.0 °F - 24.8 °F 37% 30.35 in 10.0 mi Calm Calm - N/A   Clear
9:35 AM 51.8 °F - 24.8 °F 35% 30.35 in 10.0 mi West 3.5 mph - N/A   Clear
9:55 AM 55.4 °F - 24.8 °F 31% 30.35 in 10.0 mi WSW 4.6 mph - N/A   Clear
10:15 AM 55.4 °F - 24.8 °F 31% 30.34 in 10.0 mi WSW 4.6 mph - N/A   Clear
10:35 AM 59.0 °F - 24.8 °F 27% 30.35 in 10.0 mi WSW 4.6 mph - N/A   Clear
10:55 AM 60.8 °F - 24.8 °F 25% 30.35 in 10.0 mi WSW 8.1 mph - N/A   Clear
11:15 AM 62.6 °F - 23.0 °F 22% 30.34 in 10.0 mi SW 9.2 mph - N/A   Clear
11:35 AM 64.4 °F - 23.0 °F 21% 30.34 in 10.0 mi WSW 9.2 mph - N/A   Clear
11:55 AM 66.2 °F - 23.0 °F 19% 30.33 in 10.0 mi SW 8.1 mph - N/A   Clear
12:15 PM 68.0 °F - 21.2 °F 17% 30.32 in 10.0 mi SSW 10.4 mph 17.3 mph N/A   Mostly Cloudy
12:35 PM 68.0 °F - 19.4 °F 16% 30.32 in 10.0 mi SSW 13.8 mph 19.6 mph N/A   Overcast
12:55 PM 68.0 °F - 21.2 °F 17% 30.31 in 10.0 mi SSW 9.2 mph - N/A   Mostly Cloudy
1:15 PM 71.6 °F - 21.2 °F 15% 30.30 in 10.0 mi West 11.5 mph 19.6 mph N/A   Mostly Cloudy
1:35 PM 71.6 °F - 19.4 °F 14% 30.29 in 10.0 mi WSW 6.9 mph - N/A   Scattered Clouds
1:55 PM 71.6 °F - 19.4 °F 14% 30.29 in 10.0 mi West 11.5 mph 20.7 mph N/A   Partly Cloudy
2:15 PM 71.6 °F - 19.4 °F 14% 30.28 in 10.0 mi WSW 13.8 mph 24.2 mph N/A   Mostly Cloudy
2:35 PM 73.4 °F - 19.4 °F 13% 30.27 in 10.0 mi WSW 11.5 mph 16.1 mph N/A   Mostly Cloudy
2:55 PM 75.2 °F - 19.4 °F 12% 30.25 in 10.0 mi WNW 12.7 mph 18.4 mph N/A   Overcast
3:15 PM 75.2 °F - 19.4 °F 12% 30.25 in 10.0 mi West 13.8 mph 18.4 mph N/A   Overcast
3:35 PM 73.4 °F - 19.4 °F 13% 30.24 in 10.0 mi West 5.8 mph - N/A   Mostly Cloudy
3:55 PM 75.2 °F - 19.4 °F 12% 30.23 in 10.0 mi West 11.5 mph 21.9 mph N/A   Mostly Cloudy
4:15 PM 75.2 °F - 19.4 °F 12% 30.22 in 10.0 mi West 12.7 mph 19.6 mph N/A   Mostly Cloudy
4:35 PM 75.2 °F - 17.6 °F 11% 30.22 in 10.0 mi WSW 13.8 mph 21.9 mph N/A   Partly Cloudy
4:55 PM 75.2 °F - 19.4 °F 12% 30.21 in 10.0 mi WNW 20.7 mph 28.8 mph N/A   Clear
5:15 PM 75.2 °F - 21.2 °F 13% 30.21 in 10.0 mi West 21.9 mph 26.5 mph N/A   Clear
5:35 PM 77.0 °F - 21.2 °F 12% 30.20 in 10.0 mi West 16.1 mph 23.0 mph N/A   Clear
5:55 PM 75.2 °F - 26.6 °F 17% 30.20 in 10.0 mi NW 16.1 mph 21.9 mph N/A   Clear
6:15 PM 75.2 °F - 28.4 °F 18% 30.20 in 10.0 mi WNW 17.3 mph 20.7 mph N/A   Partly Cloudy
6:35 PM 75.2 °F - 32.0 °F 21% 30.20 in 10.0 mi WNW 17.3 mph 25.3 mph N/A   Partly Cloudy
6:55 PM 75.2 °F - 32.0 °F 21% 30.20 in 10.0 mi WNW 20.7 mph 28.8 mph N/A   Scattered Clouds
7:15 PM 73.4 °F - 32.0 °F 22% 30.20 in 10.0 mi WNW 19.6 mph 27.6 mph N/A   Scattered Clouds
7:35 PM 71.6 °F - 32.0 °F 23% 30.21 in 10.0 mi NW 15.0 mph 20.7 mph N/A   Clear
7:55 PM 68.0 °F - 32.0 °F 26% 30.22 in 10.0 mi NW 8.1 mph - N/A   Clear
8:15 PM 62.6 °F - 32.0 °F 32% 30.23 in 10.0 mi NW 6.9 mph - N/A   Clear
8:35 PM 62.6 °F - 32.0 °F 32% 30.24 in 10.0 mi NW 8.1 mph - N/A   Clear
8:55 PM 60.8 °F - 32.0 °F 34% 30.25 in 10.0 mi NW 6.9 mph - N/A   Clear
9:15 PM 60.8 °F - 32.0 °F 34% 30.26 in 10.0 mi NW 8.1 mph - N/A   Clear
9:35 PM 60.8 °F - 32.0 °F 34% 30.27 in 10.0 mi NW 10.4 mph - N/A   Clear
9:55 PM 59.0 °F - 32.0 °F 36% 30.28 in 10.0 mi NW 9.2 mph - N/A   Clear
10:15 PM 55.4 °F - 32.0 °F 41% 30.28 in 10.0 mi NNW 5.8 mph - N/A   Clear
10:35 PM 55.4 °F - 32.0 °F 41% 30.29 in 10.0 mi NW 6.9 mph - N/A   Partly Cloudy
10:55 PM 53.6 °F - 32.0 °F 44% 30.29 in 10.0 mi NW 6.9 mph - N/A   Partly Cloudy
11:15 PM 55.4 °F - 32.0 °F 41% 30.30 in 10.0 mi NW 10.4 mph - N/A   Clear
11:35 PM 53.6 °F - 32.0 °F 44% 30.30 in 10.0 mi NW 8.1 mph - N/A   Clear
11:55 PM 48.2 °F - 30.2 °F 50% 30.31 in 10.0 mi NW 5.8 mph - N/A   Clear